CAPE
0 0 0 0 0 0 0 0 0 0 0 0 0 0 0 0 0 0 0 0 0 0 0 0 0 0 0 0 0 0 0 0 0 0 0 0 0 0 0 0 0 0 0 0 2 0 0 10 68 224 364 472 604 732 818 882 954 1058 1212 1354 1518 1618 1691 1734 1759 1796 1849 1871 1835 1810 1796 1698 1742 1793 1834 1869 1874 1873 1858 1846 1808 1791 1742 1712 1702 1718 1703
0 0 0 0 0 0 0 0 0 0 0 0 0 0 0 0 0 0 0 0 0 0 0 0 0 0 0 0 0 0 0 0 0 0 0 0 0 0 0 0 0 0 0 1 24 40 40 33 81 194 385 570 694 825 899 966 1046 1127 1224 1400 1545 1680 1754 1800 1834 1860 1934 1987 2002 1966 1936 1844 1824 1857 1869 1907 1942 1960 1956 1934 1896 1854 1771 1742 1712 1708 1694
0 0 0 0 0 0 0 0 0 0 0 0 0 0 0 0 0 0 0 0 0 0 0 0 0 0 0 0 0 0 0 0 0 0 0 0 0 0 0 0 0 0 0 0 12 87 104 100 134 239 436 621 767 875 953 1033 1120 1196 1297 1463 1561 1690 1832 1868 1884 1931 1982 2054 2092 2083 1986 1949 1931 1920 1930 1954 1990 2017 2014 1995 1962 1900 1819 1758 1729 1691 1680
0 0 0 0 0 0 0 0 0 0 0 0 0 0 0 0 0 0 0 0 0 0 0 0 0 0 0 0 0 0 0 0 0 0 0 0 0 0 0 0 0 0 0 0 7 70 154 210 252 330 497 660 816 926 1027 1111 1188 1241 1339 1489 1590 1738 1848 1922 1956 2000 2039 2087 2138 2145 2083 2075 2052 2034 2032 2046 2050 2047 2042 2027 1996 1948 1896 1830 1786 1734 1690
0 0 0 0 0 0 0 0 0 0 0 0 0 0 0 0 0 0 0 0 0 0 0 0 0 0 0 0 0 0 0 0 0 0 0 0 0 0 0 0 0 0 0 0 19 70 159 341 426 468 585 711 878 1015 1132 1195 1246 1296 1426 1533 1651 1790 1829 1964 2034 2058 2079 2124 2172 2181 2152 2148 2126 2114 2126 2122 2114 2094 2081 2058 2037 2020 1985 1908 1849 1787 1734
0 0 0 0 0 0 0 0 0 0 0 0 0 0 0 0 0 0 0 0 0 0 0 0 0 0 0 0 0 0 0 0 0 0 0 0 0 0 0 0 0 0 0 0 22 66 176 327 481 584 698 796 958 1088 1178 1226 1305 1439 1538 1614 1737 1842 1929 1998 2081 2111 2122 2121 2155 2186 2204 2194 2183 2178 2180 2188 2184 2178 2164 2122 2076 2064 2038 2000 1950 1892 1841
0 0 0 0 0 0 0 0 0 0 0 0 0 0 0 0 0 0 0 0 0 0 0 0 0 0 19 187 865 1047 980 800 354 0 0 0 0 0 0 0 0 0 0 0 14 63 136 226 425 584 788 935 1072 1154 1259 1299 1384 1521 1594 1694 1778 1880 1965 2046 2114 2164 2208 2230 2182 2208 2222 2228 2220 2228 2243 2259 2248 2240 2216 2195 2156 2131 2106 2080 2042 2014 1977
0 0 0 0 0 0 0 0 0 0 0 0 0 0 0 0 0 0 0 0 0 0 0 0 0 0 23 188 694 920 946 1050 962 786 695 769 625 604 550 0 0 0 0 0 18 95 238 380 431 574 862 1021 1154 1291 1330 1364 1427 1543 1664 1740 1816 1913 2018 2107 2189 2248 2285 2299 2256 2260 2258 2276 2354 2348 2317 2330 2331 2314 2285 2279 2254 2218 2178 2134 2106 2074 2047
0 0 0 0 0 0 0 0 0 0 0 0 0 0 0 0 0 0 0 0 0 0 0 0 0 0 0 0 0 522 810 823 894 790 708 776 827 807 943 945 828 531 474 0 22 187 339 452 589 647 793 1027 1219 1357 1410 1445 1492 1557 1697 1804 1880 1985 2079 2166 2265 2353 2391 2396 2316 2339 2406 2425 2444 2452 2391 2398 2392 2376 2350 2349 2322 2300 2238 2208 2182 2138 2105
0 0 0 0 0 0 0 0 0 0 0 0 0 0 0 0 411 198 0 0 0 0 0 0 0 0 0 0 0 218 728 654 681 513 632 699 803 807 923 1188 1133 1156 921 588 117 231 378 560 693 771 794 935 1232 1416 1507 1556 1580 1618 1748 1871 1968 2062 2131 2205 2336 2425 2492 2514 2510 2497 2452 2489 2534 2539 2472 2448 2445 2427 2415 2400 2382 2381 2347 2306 2266 2205 2177
0 0 0 0 0 0 0 0 0 0 0 0 0 0 0 224 124 603 152 0 0 0 0 0 0 0 0 0 0 18 534 565 466 396 439 568 671 744 840 1128 1492 1445 1286 1006 892 806 720 695 766 836 866 899 1155 1405 1568 1655 1682 1724 1779 1901 1995 2092 2183 2274 2350 2487 2549 2621 2594 2611 2624 2606 2574 2627 2537 2517 2489 2466 2454 2445 2435 2413 2402 2372 2325 2284 2250
0 0 0 0 0 0 0 0 0 0 0 0 0 0 0 672 0 6 555 266 0 0 0 0 0 0 0 0 0 456 431 278 413 163 204 309 447 590 722 733 1097 1684 1830 1664 1209 1014 1110 1150 1052 934 927 958 1110 1297 1484 1630 1726 1797 1875 1943 1962 2036 2172 2288 2373 2494 2609 2675 2712 2709 2723 2656 2644 2637 2644 2582 2549 2535 2534 2522 2494 2463 2462 2378 2384 2346 2310
0 0 0 0 0 0 0 0 0 0 0 0 0 0 0 1 0 82 514 570 454 160 0 0 0 0 325 131 196 482 94 36 63 109 123 217 288 510 600 698 767 1068 1895 2640 2454 2069 1738 1161 1176 1168 1099 1010 1104 1224 1338 1478 1654 1812 1918 1975 1991 2022 2140 2228 2348 2552 2657 2727 2760 2761 2700 2736 2752 2724 2714 2691 2660 2621 2606 2573 2548 2537 2501 2473 2431 2406 2365
0 0 0 0 0 0 0 0 0 0 0 0 0 0 2 186 28 450 460 454 346 144 178 196 410 437 349 208 478 0 1 0 3 76 163 242 313 237 372 576 639 799 1025 1831 2575 2616 2174 1730 1188 1186 1196 1187 1151 1242 1306 1410 1598 1744 1836 1926 1988 2014 2071 2150 2305 2544 2702 2810 2809 2806 2816 2796 2772 2816 2818 2778 2744 2719 2706 2658 2615 2582 2583 2572 2554 2520 2465
0 0 0 0 0 0 0 0 0 0 0 0 0 1 480 433 660 330 617 107 82 14 82 232 444 566 132 0 358 0 0 0 18 70 146 204 178 160 184 408 599 635 764 1085 1921 2818 2789 2350 1892 1511 1309 1298 1294 1340 1429 1502 1569 1630 1728 1847 1926 1977 2018 2067 2170 2452 2630 2741 2828 2891 2876 2841 2858 2901 2914 2878 2844 2820 2814 2782 2738 2696 2668 2640 2610 2598 2563
0 0 0 0 0 2 2 74 31 10 44 3 2 258 334 405 186 440 326 384 262 493 561 500 472 0 0 88 98 211 0 0 0 1 1 19 82 140 390 497 577 623 652 717 1014 1943 2929 2966 2636 2512 2176 2011 1798 1660 1540 1620 1624 1607 1653 1757 1860 1940 2005 2040 2111 2268 2478 2652 2791 2901 2954 2955 2937 2964 2954 2951 2928 2901 2899 2877 2830 2822 2779 2722 2677 2635 2616
28 17 20 124 4 74 106 74 46 115 90 95 269 511 440 249 137 359 382 428 488 482 103 0 0 0 0 0 0 293 380 434 490 522 497 0 56 400 398 527 661 639 650 550 626 778 1448 2639 3174 2896 2713 2498 2401 2399 2322 2252 2136 2087 2008 1875 1742 1878 1986 2087 2119 2175 2328 2535 2708 2894 2993 3000 3007 2970 2973 2966 2976 2946 2916 2901 2885 2859 2846 2807 2741 2684 2657
36 2 193 226 162 77 86 19 39 114 140 295 472 473 282 12 154 196 245 142 0 0 0 0 0 0 0 0 275 393 461 499 529 570 544 402 163 292 404 548 726 782 752 724 663 716 788 876 1594 2791 3363 3315 2887 2755 2648 2606 2581 2562 2463 2319 2186 2132 2009 1959 2109 2190 2242 2377 2608 2794 2896 2965 3022 3024 3005 2980 2983 3012 2988 2954 2922 2917 2930 2861 2789 2742 2716
66 36 306 203 71 99 101 59 100 108 111 257 477 354 115 24 0 0 0 14 0 94 0 0 0 0 0 0 373 525 671 667 620 611 625 596 418 338 448 667 754 747 858 904 856 916 805 852 928 1051 1351 2196 2884 3324 3434 3315 3074 2859 2883 2808 2735 2659 2530 2476 2364 2144 2030 2178 2408 2652 2799 2888 2956 3003 2984 2984 2991 3012 3022 2982 2980 2968 2927 2938 2907 2850 2746
31 4 192 306 161 147 152 72 60 74 52 172 225 231 111 80 56 0 28 46 0 69 163 210 293 322 337 62 528 604 700 788 800 617 607 729 845 841 799 828 710 822 918 944 918 923 976 1034 1127 1058 1060 1217 1487 1769 2165 2836 3354 3506 3349 3107 3024 2994 2861 2780 2756 2686 2554 2482 2342 2436 2675 2813 2882 2911 2952 2977 2987 2987 2995 3006 2966 2943 2948 2954 2935 2857 2718
15 0 193 336 120 51 48 30 14 62 65 86 119 136 65 103 17 0 4 13 15 53 155 304 402 456 464 526 533 616 644 731 828 926 992 1015 979 978 826 986 950 837 932 1013 1014 981 1014 998 1160 1092 1274 1398 1364 1363 1648 1964 2265 2421 3018 3476 3534 3307 3155 3110 3033 3003 2985 2880 2744 2608 2490 2700 2852 2957 2928 2956 2959 2947 2924 2940 2941 2915 2892 2922 2936 2914 2811
2 0 58 216 3 5 54 32 45 82 43 111 64 164 190 76 67 114 136 56 13 0 107 319 446 523 619 682 724 772 892 928 997 1057 1080 1070 1085 949 1039 1052 1161 1154 1152 1156 981 935 908 1054 1068 1096 1286 1470 1554 1551 1562 1674 1773 2037 2381 2514 2885 3433 3526 3380 3402 3296 3340 3209 3181 3081 2950 2794 2660 2848 2928 2914 2876 2874 2884 2902 2901 2905 2840 2777 2785 2775 2814
7 5 18 168 40 3 26 27 50 36 23 92 86 104 220 86 110 68 61 15 16 38 38 81 602 640 721 714 862 984 1051 1039 1029 1077 1078 1095 1019 994 745 680 640 738 864 1015 967 897 1033 1139 1189 1186 1373 1463 1615 1688 1800 1783 1844 1901 1978 2173 2520 2736 2867 3195 3462 3426 3344 3307 3256 3162 3025 3068 3028 2966 2844 2896 2906 2933 2922 2886 2826 2838 2879 2768 2650 2622 2649
0 0 147 215 63 2 22 27 47 44 1 14 69 18 5 0 8 6 0 0 26 38 6 371 507 593 663 786 925 1041 1026 1029 1036 1054 1078 1055 975 871 772 688 715 799 976 1065 1091 1088 1272 1302 1315 1340 1342 1560 1633 1713 1672 1563 1454 1533 1769 1896 2070 2315 2550 2762 2929 3091 3260 3401 3436 3347 3232 3115 2990 2965 2944 2834 2808 2940 2930 2896 2807 2798 2758 2780 2741 2713 2689
20 72 48 86 173 58 21 4 0 0 0 0 0 12 0 0 0 0 0 0 0 1 0 8 278 228 521 651 823 841 848 832 887 925 922 920 958 1059 1090 1060 1048 1104 1170 1290 1244 1130 1084 1190 1271 1394 1444 1440 1378 1443 1286 1114 1015 1098 1227 1401 1543 1737 1876 2060 2281 2508 2754 3013 3263 3354 3382 3384 3230 3116 3144 3160 3008 2909 2927 2908 2896 2836 2718 2742 2774 2788 2795
92 124 94 38 171 51 65 6 0 0 0 0 2 2 0 0 0 0 0 0 0 0 0 0 0 0 28 412 632 698 736 778 830 906 939 920 887 906 961 1095 1179 1254 1328 1254 1186 1134 1117 1086 1050 1109 1203 1212 1248 1226 1076 954 903 861 825 855 1040 1183 1250 1297 1423 1638 1909 2154 2417 2600 2890 3060 3130 3084 2868 2817 2822 2950 2986 2773 2858 2806 2789 2843 2802 2736 2779
86 68 46 109 168 96 39 17 38 7 0 0 0 0 0 5 6 0 0 0 0 0 0 0 0 0 0 0 411 550 680 704 786 890 984 1006 987 954 920 926 1149 1340 1420 1398 1267 1176 1123 1129 1161 1101 1048 1062 1103 1076 1098 1044 1030 980 837 720 700 720 772 920 1019 1102 1298 1521 1607 1774 1948 2106 2390 2508 2375 2331 2494 2552 2562 2777 2562 2631 2696 2750 2754 2928 2788
120 96 54 61 40 18 73 41 0 0 0 0 0 0 0 0 0 0 0 0 0 0 0 0 0 0 0 0 0 0 47 484 626 767 898 982 1025 1025 957 868 885 1110 1280 1325 1273 1208 1237 1220 1205 1297 1384 1364 1419 1445 1311 1104 1092 1010 811 564 430 454 489 499 504 549 716 880 982 1075 1050 1086 1046 960 1258 1860 1926 1842 2161 2554 2448 2451 2456 2412 2460 2352 2251
38 304 405 390 237 4 22 21 0 0 0 0 0 0 0 0 0 0 0 0 0 0 0 0 0 0 0 0 0 0 0 0 182 545 700 772 791 725 674 673 606 682 774 827 930 1049 1144 1209 1200 1158 1155 1433 1489 1459 1423 1271 1160 996 884 715 647 615 730 578 385 198 487 454 469 544 638 625 517 321 126 8 380 976 1464 1872 2077 2132 2307 2163 1932 1761 1658
365 376 508 510 318 81 204 87 0 8 8 0 0 0 0 0 0 0 0 0 0 0 0 0 0 0 0 0 0 0 0 0 0 150 421 590 648 652 605 589 618 498 522 567 643 785 966 993 976 1058 1119 1210 1372 1380 1406 1398 1359 1215 1062 900 770 707 540 640 698 663 537 447 556 543 550 452 487 540 622 499 424 721 1169 1430 1757 1772 1849 2147 1900 1632 1398
380 434 536 451 363 260 269 188 0 0 15 0 0 0 0 0 0 0 0 0 0 0 0 0 0 0 0 0 0 0 0 0 0 0 0 0 63 276 452 455 481 478 490 550 588 618 703 810 684 684 800 938 1162 1243 1324 1400 1293 1009 858 710 715 568 436 398 513 485 386 291 0 272 291 0 175 559 573 588 881 981 1035 1443 1770 1770 1879 1209 1130 1039 466
403 377 413 410 328 171 189 0 0 0 38 0 0 6 0 0 0 0 0 0 0 4 78 0 0 0 0 0 0 0 0 0 0 0 0 0 10 11 46 262 339 399 388 388 425 466 428 456 520 592 670 657 779 1081 1336 1492 1323 904 795 649 553 354 0 34 519 628 418 291 249 292 0 0 0 24 18 127 176 20 2 170 984 1321 1192 232 8 35 61
397 232 239 150 183 37 16 0 0 0 2 0 0 1 0 0 1 1 0 0 74 151 125 12 0 0 0 0 0 0 0 0 0 0 4 16 18 0 1 4 0 8 67 109 232 132 285 375 444 540 647 703 668 695 1015 1208 964 812 749 687 622 528 420 93 107 614 558 382 308 259 251 256 301 387 350 261 124 40 7 19 21 130 320 0 0 7 0
276 162 96 57 169 127 60 36 41 0 0 0 0 2 2 4 26 90 138 164 216 193 116 3 0 0 0 0 0 0 0 0 0 0 0 5 7 8 0 0 0 0 0 0 0 1 12 47 308 372 440 466 457 512 565 616 691 809 800 826 821 802 734 520 352 415 628 482 321 452 380 223 272 383 262 146 0 0 0 0 0 0 0 0 20 14 2
129 42 90 122 89 78 51 20 8 21 35 37 112 109 78 219 376 352 286 250 243 199 48 8 3 1 0 0 0 0 0 0 0 1 0 0 0 0 0 0 0 0 0 0 0 0 0 12 99 208 308 327 269 377 451 507 585 633 707 782 783 750 694 706 578 478 513 563 640 492 454 412 468 424 370 213 68 0 0 0 0 0 0 0 0 0 8
152 66 259 108 152 171 142 53 209 98 167 137 150 199 253 349 372 341 310 270 206 107 12 5 19 1 0 0 0 0 0 0 0 0 0 0 0 0 0 0 0 0 0 0 0 0 0 2 147 126 17 1 109 136 260 337 397 479 600 690 755 718 696 689 761 700 546 525 407 352 392 458 577 547 331 242 167 134 25 1 0 0 0 0 0 0 22
94 130 98 120 96 116 165 328 381 342 263 234 250 350 406 304 228 241 196 145 37 14 6 9 2 0 0 0 0 0 0 0 0 0 0 0 0 0 0 0 0 0 0 0 0 0 2 12 37 35 3 0 0 3 49 103 0 251 406 474 585 669 680 666 686 701 726 597 456 362 401 332 292 320 434 508 456 257 191 71 16 20 25 27 30 22 5
72 103 146 57 93 79 42 100 69 426 375 382 394 303 290 158 98 50 26 14 10 11 6 4 2 0 0 0 0 0 0 0 0 0 0 0 0 0 0 0 0 0 0 0 0 0 10 24 11 3 0 0 2 10 28 14 3 0 152 306 380 435 549 668 741 722 690 648 659 448 330 261 338 297 237 210 185 133 121 85 49 46 38 1 0 5 23
56 67 88 164 208 164 101 98 76 331 383 105 74 65 112 23 21 18 12 12 9 4 0 0 0 0 0 0 0 0 0 0 0 0 0 0 0 0 0 0 0 0 0 0 0 0 20 42 27 3 4 2 1 0 23 25 6 64 56 63 72 184 323 394 464 546 600 688 602 575 450 418 344 427 392 383 334 207 134 130 171 0 126 148 198 178 155
24 94 174 210 118 110 125 142 122 101 88 85 99 72 59 54 19 22 21 11 0 2 0 0 0 0 0 0 0 0 0 0 0 0 0 0 0 0 0 0 0 0 2 8 2 0 14 94 96 31 2 8 3 0 6 9 0 0 0 0 3 30 50 144 270 233 235 270 363 551 604 392 519 495 540 533 420 328 391 366 266 49 48 131 138 103 36
0 14 63 120 134 171 217 164 128 116 115 91 62 37 11 7 9 4 2 0 0 2 1 2 2 0 0 0 0 0 0 0 0 0 0 0 0 0 0 0 0 0 0 0 2 2 3 0 0 0 0 5 53 100 0 5 0 0 0 0 0 0 0 0 36 9 16 49 72 171 405 554 564 340 432 520 503 431 431 436 353 290 255 228 170 0 13
0 1 9 14 28 40 43 42 49 43 33 36 30 19 1 1 3 1 0 0 0 0 2 2 2 2 1 0 0 0 2 1 0 0 0 1 3 2 1 1 3 10 22 4 0 0 2 0 2 2 0 0 0 0 6 22 8 10 16 17 5 0 1 0 9 0 0 0 3 8 15 202 356 330 388 389 419 532 370 466 392 176 275 221 146 66 100
0 0 0 1 6 0 4 14 18 23 31 68 59 12 0 0 0 0 0 0 0 0 0 0 0 0 0 1 1 0 0 0 0 0 0 0 0 0 1 0 0 6 7 3 1 0 0 0 0 0 8 0 0 0 0 0 0 0 28 24 44 18 11 16 2 0 0 0 0 0 0 4 37 130 249 340 396 188 124 158 91 13 82 56 2 72 46
5 0 0 0 0 0 0 0 1 0 15 21 61 54 9 0 0 0 0 0 0 0 0 0 0 0 0 0 0 0 0 0 0 0 0 0 0 0 0 0 0 0 0 0 0 0 0 0 9 15 7 2 0 0 0 9 0 0 0 24 35 30 0 6 18 17 4 0 0 0 0 0 3 18 8 38 180 87 51 30 6 4 10 36 33 30 0
0 0 0 0 2 6 9 11 8 8 11 43 45 32 0 0 0 0 0 0 0 0 0 0 0 0 0 0 0 0 0 0 0 0 0 0 0 0 0 0 0 0 0 0 0 0 0 0 2 11 3 0 0 0 2 0 0 8 6 44 50 50 41 30 24 22 9 12 3 2 0 0 0 5 4 12 36 27 19 20 12 11 30 60 66 63 48
0 0 0 0 0 0 3 10 11 10 7 3 0 0 0 0 0 0 0 0 0 0 0 0 0 0 0 0 0 0 0 0 0 0 0 0 0 0 0 0 0 0 0 0 0 0 0 1 0 0 0 0 0 0 0 0 1 0 13 30 11 1 0 0 0 0 18 16 12 2 2 13 20 19 36 46 62 65 77 40 67 73 99 107 84 86 104
1 1 1 1 1 3 4 3 4 9 8 2 1 0 2 2 2 1 0 0 0 0 0 0 0 0 0 0 0 0 0 0 0 0 0 0 0 0 0 0 0 0 0 0 0 0 0 0 0 0 0 0 0 0 0 0 0 0 0 0 11 0 0 1 1 0 0 0 0 0 0 0 0 20 29 38 54 77 85 98 75 100 140 162 142 150 189
2 3 3 5 6 6 6 6 6 0 0 0 2 1 2 2 0 1 3 3 2 1 0 0 0 0 0 0 0 0 0 0 0 0 0 0 0 0 0 0 0 0 0 0 0 0 0 0 0 0 0 0 0 0 0 0 0 0 0 0 0 0 0 0 0 0 0 0 0 0 0 0 0 0 5 16 0 0 0 0 0 0 102 98 6 39 138
2 4 2 1 0 0 0 0 0 0 0 0 0 0 0 0 0 0 0 1 1 0 0 0 0 0 0 0 0 0 0 0 0 0 0 0 0 0 0 0 0 0 0 0 0 0 0 0 0 0 0 0 0 0 0 0 0 0 0 0 0 0 0 0 0 0 0 0 0 0 0 0 0 0 0 0 0 0 0 0 0 30 102 120 124 146 208
3 2 0 0 0 0 0 0 0 0 0 0 0 0 0 0 0 0 0 0 0 0 0 0 0 0 0 0 0 0 0 0 0 0 0 0 0 0 0 0 0 0 0 0 0 0 0 0 0 0 0 0 0 0 0 0 0 0 0 0 0 0 0 0 0 0 0 0 0 0 0 0 0 0 0 0 0 0 0 0 0 0 4 5 1 19 90
0 2 1 0 0 0 0 0 0 0 0 0 0 0 0 0 0 0 0 0 0 0 0 0 0 0 0 0 0 0 0 0 0 0 0 0 0 0 0 0 0 0 0 0 0 0 0 0 0 0 0 0 0 0 0 0 0 0 0 0 0 0 0 2 4 2 0 1 0 0 0 0 0 0 0 0 0 0 0 0 0 0 3 11 14 16 15
0 0 0 0 0 0 0 0 0 0 0 0 0 0 0 0 0 0 0 0 0 0 0 0 0 0 0 0 0 0 0 0 0 0 0 0 0 0 0 0 0 0 0 0 0 0 0 0 0 0 0 0 0 0 0 0 0 0 0 0 0 0 0 0 0 0 8 9 2 3 0 3 2 0 0 0 0 0 0 0 0 0 0 0 0 0 0
Wind_Speed
nan nan nan nan nan nan nan nan nan nan nan nan nan nan nan nan nan nan nan nan nan nan nan nan nan nan nan nan nan nan nan nan nan nan nan nan nan nan nan nan nan nan nan nan nan nan nan nan nan 13 13 12 12 13 13 14 14 13 15 15 13 12 12 11 12 14 15 15 16 18 20 21 23 23 23 24 24 24 24 23 24 24 22 20 18 17 17
nan nan nan nan nan nan nan nan nan nan nan nan nan nan nan nan nan nan nan nan nan nan nan nan nan nan nan nan nan nan nan nan nan nan nan nan nan nan nan nan nan nan nan nan nan nan nan nan nan 13 13 13 14 15 15 16 15 13 16 13 12 12 12 12 12 14 16 17 18 20 21 22 24 24 24 25 26 26 25 24 25 27 26 23 21 20 20
nan nan nan nan nan nan nan nan nan nan nan nan nan nan nan nan nan nan nan nan nan nan nan nan nan nan nan nan nan nan nan nan nan nan nan nan nan nan nan nan nan nan nan nan nan nan 18 16 14 13 13 13 15 15 15 16 14 14 16 14 13 13 13 12 13 15 16 18 20 21 22 23 25 27 28 27 27 27 27 26 26 28 29 26 22 22 23
nan nan nan nan nan nan nan nan nan nan nan nan nan nan nan nan nan nan nan nan nan nan nan nan nan nan nan nan nan nan nan nan nan nan nan nan nan nan nan nan nan nan nan nan nan nan 18 15 14 14 14 15 17 16 17 16 15 17 16 15 13 13 13 13 14 16 16 18 20 21 23 24 27 29 31 30 28 29 28 28 27 28 28 27 25 25 25
nan nan nan nan nan nan nan nan nan nan nan nan nan nan nan nan nan nan nan nan nan nan nan nan nan nan nan nan nan nan nan nan nan nan nan nan nan nan nan nan nan nan nan nan nan nan 18 18 17 15 18 18 17 16 18 17 21 20 17 16 14 12 14 16 15 15 16 18 19 21 23 25 27 30 32 31 31 31 30 29 29 29 28 28 27 27 27
nan nan nan nan nan nan nan nan nan nan nan nan nan nan nan nan nan nan nan nan nan nan nan nan nan nan nan nan nan nan nan nan nan nan nan nan nan nan nan nan nan nan nan nan nan nan 17 18 16 15 16 16 14 15 18 23 25 22 20 17 15 14 16 18 17 17 18 18 19 20 22 26 29 30 31 32 32 31 31 31 30 28 28 28 28 28 27
nan nan nan nan nan nan nan nan nan nan nan nan nan nan nan nan nan nan nan nan nan nan nan nan nan nan nan 42 39 37 35 36 36 nan nan nan nan nan nan nan nan nan nan nan nan nan 19 18 20 19 15 13 17 21 22 22 23 24 21 20 19 18 19 20 20 20 19 18 18 19 22 26 29 30 29 29 31 31 31 32 31 30 29 29 28 28 28
nan nan nan nan nan nan nan nan nan nan nan nan nan nan nan nan nan nan nan nan nan nan nan nan nan nan nan 43 42 40 38 38 37 37 37 36 34 33 31 nan nan nan nan nan nan nan 23 29 30 24 18 19 21 19 20 21 23 22 20 20 21 22 22 23 24 23 22 21 20 21 22 24 27 29 28 28 29 30 30 30 30 29 27 27 27 28 29
nan nan nan nan nan nan nan nan nan nan nan nan nan nan nan nan nan nan nan nan nan nan nan nan nan nan nan nan nan 41 43 38 37 37 36 36 34 32 31 31 29 27 24 nan nan 27 29 29 30 25 24 24 21 21 20 21 23 21 20 20 22 24 24 25 25 26 26 25 25 24 25 25 25 27 27 26 27 30 30 29 30 29 28 28 28 29 29
nan nan nan nan nan nan nan nan nan nan nan nan nan nan nan nan 63 61 nan nan nan nan nan nan nan nan nan nan nan 43 42 40 39 38 38 36 35 34 33 33 34 35 32 29 28 30 32 33 32 32 30 27 26 24 22 23 24 22 21 21 23 25 27 26 25 26 27 29 28 25 26 27 27 25 25 26 27 30 30 30 30 29 29 28 29 29 29
nan nan nan nan nan nan nan nan nan nan nan nan nan nan nan 59 65 64 58 nan nan nan nan nan nan nan nan nan nan nan 43 41 40 39 39 38 36 36 36 38 40 38 36 32 31 34 35 35 35 34 32 31 30 27 27 26 26 24 22 23 25 26 26 26 27 29 32 33 31 28 28 30 30 26 24 25 28 30 30 30 29 30 30 29 29 29 27
nan nan nan nan nan nan nan nan nan nan nan nan nan nan nan 61 nan nan 58 52 nan nan nan nan nan nan nan nan nan 45 46 42 42 41 39 40 40 40 39 40 41 39 40 46 46 41 39 36 35 36 36 34 31 30 30 31 29 26 24 24 25 25 27 30 33 36 37 37 36 35 34 37 36 30 26 26 28 30 31 32 31 32 31 29 29 29 30
nan nan nan nan nan nan nan nan nan nan nan nan nan nan nan nan nan nan 60 57 53 51 nan nan nan nan 47 48 50 51 nan nan nan 43 42 41 41 44 44 45 44 44 45 49 48 46 42 38 38 39 40 38 35 34 34 33 29 27 27 27 27 28 32 36 38 39 39 40 39 38 37 37 38 34 27 25 29 31 33 35 33 33 32 30 29 29 30
nan nan nan nan nan nan nan nan nan nan nan nan nan nan nan 60 nan 62 59 59 58 57 54 51 52 52 51 52 52 nan nan nan nan nan 44 44 45 46 47 49 50 48 49 53 53 51 48 46 42 41 42 42 40 40 38 32 28 29 31 32 33 35 36 37 38 38 38 39 40 40 39 40 40 35 28 29 31 33 36 37 35 33 34 34 32 31 32
nan nan nan nan nan nan nan nan nan nan nan nan nan nan 64 63 61 63 59 58 nan nan nan 56 53 53 53 nan 52 nan nan nan nan nan 44 46 48 49 51 52 55 53 54 56 56 53 51 51 49 46 44 43 43 41 39 33 33 36 37 39 40 40 38 38 38 38 37 39 42 43 41 41 42 39 34 33 33 35 38 38 35 34 36 37 36 35 36
nan nan nan nan nan nan nan nan nan nan nan nan nan 69 65 63 63 62 57 58 56 57 58 55 53 nan nan nan nan 48 nan nan nan nan nan nan nan 51 53 54 54 55 55 56 57 57 56 57 54 52 49 45 43 41 36 40 43 42 41 41 43 44 42 41 41 40 38 39 42 43 43 43 44 42 40 37 37 38 39 38 36 37 40 41 39 37 39
nan nan nan 91 nan nan 66 nan nan 72 nan nan 70 68 64 65 62 57 57 58 56 56 56 nan nan nan nan nan nan 50 48 48 48 49 51 nan nan 53 56 59 57 57 58 59 60 60 60 60 57 55 52 50 48 44 46 49 46 45 45 47 47 45 43 41 40 40 40 40 40 42 43 45 46 45 45 45 43 41 41 40 38 39 43 46 43 41 42
nan nan 79 83 83 nan nan nan nan 71 67 70 71 70 67 nan 62 60 58 56 nan nan nan nan nan nan nan nan 53 52 51 52 52 52 53 54 54 54 54 56 57 57 57 59 63 63 62 61 58 56 54 53 52 49 47 48 47 47 47 47 45 42 39 37 36 37 38 38 39 41 44 46 46 47 48 49 48 47 45 42 41 41 44 47 47 47 46
nan nan 76 81 nan nan 63 nan 69 74 67 67 64 64 69 nan nan nan nan nan nan nan nan nan nan nan nan nan 56 53 51 52 53 54 54 54 54 55 56 52 51 53 55 57 59 61 60 59 56 54 53 52 50 48 47 46 45 43 42 41 38 37 36 36 37 39 39 40 40 41 44 46 47 48 48 49 49 48 46 46 47 47 49 50 49 50 50
nan nan 73 76 78 73 64 nan nan nan nan 66 66 59 64 nan nan nan nan nan nan nan 61 62 62 63 64 nan 59 56 53 52 52 52 53 54 53 52 51 50 49 50 51 54 56 56 54 52 50 48 47 47 47 46 45 44 43 42 40 39 37 36 37 39 41 43 44 42 43 44 45 47 49 50 51 51 51 50 50 51 52 51 52 51 51 53 53
nan nan 65 70 78 nan nan nan nan nan nan nan 64 61 nan 66 nan nan nan nan nan nan 64 60 62 66 66 65 60 57 55 54 56 56 54 53 52 50 53 52 52 50 50 50 51 51 49 46 45 45 45 45 45 46 45 44 44 44 44 42 42 41 42 43 43 44 44 45 46 46 48 49 50 52 53 53 53 52 51 53 54 55 56 54 51 52 55
nan nan nan 61 nan nan nan nan nan nan nan 63 nan 64 63 nan nan 63 65 nan nan nan 69 64 60 65 67 68 64 59 58 58 58 60 59 57 55 54 53 54 54 55 52 49 49 50 48 46 45 45 46 47 47 48 48 47 47 48 47 46 46 46 48 48 48 48 46 45 46 47 49 51 51 51 49 50 53 56 55 53 55 57 61 58 56 61 61
nan nan nan 58 nan nan nan nan nan nan nan nan nan 68 64 nan 58 nan nan nan nan nan nan nan 65 66 71 68 65 62 62 62 61 60 62 61 59 58 58 58 57 56 53 51 49 50 48 48 48 48 48 50 51 52 52 51 50 50 51 50 50 50 51 51 52 52 50 48 48 49 50 52 54 55 57 59 61 57 52 56 59 57 58 61 71 70 66
nan nan 52 49 nan nan nan nan nan nan nan nan nan nan nan nan nan nan nan nan nan nan nan 69 69 72 73 67 65 65 65 64 64 64 62 61 61 61 62 62 59 57 55 52 50 50 48 49 50 52 53 53 54 55 56 56 55 55 55 55 55 55 55 55 54 52 49 48 50 52 53 54 56 58 59 59 60 68 69 59 61 62 63 68 70 70 69
nan nan nan nan 54 nan nan nan nan nan nan nan nan nan nan nan nan nan nan nan nan nan nan nan 67 70 71 65 64 66 66 65 65 65 65 65 66 65 63 63 62 60 56 53 51 51 50 50 51 53 55 56 56 59 58 58 58 59 58 58 57 56 56 56 55 54 54 55 56 56 55 56 57 59 60 61 63 65 72 75 71 67 68 69 72 74 74
nan 45 nan nan 49 nan nan nan nan nan nan nan nan nan nan nan nan nan nan nan nan nan nan nan nan nan nan 64 64 65 65 67 68 66 66 67 66 65 66 64 61 60 58 56 55 55 56 55 54 56 58 58 57 59 61 60 59 60 59 58 57 56 56 54 53 55 56 58 58 58 59 58 57 58 61 65 66 70 73 74 79 80 75 71 77 77 78
nan nan nan 51 51 nan nan nan nan nan nan nan nan nan nan nan nan nan nan nan nan nan nan nan nan nan nan nan 60 62 63 63 65 67 66 69 69 65 61 60 61 61 63 62 61 62 61 59 58 59 60 60 58 59 61 61 59 58 57 57 56 55 56 55 55 56 56 57 58 58 57 58 60 62 62 63 66 70 72 76 79 79 79 73 73 82 81
32 nan nan nan nan nan nan nan nan nan nan nan nan nan nan nan nan nan nan nan nan nan nan nan nan nan nan nan nan nan nan 60 62 61 65 67 65 63 60 61 62 63 65 66 65 63 61 60 61 62 62 60 58 59 60 58 56 56 56 55 53 53 52 52 53 54 55 56 57 58 58 58 59 62 64 65 67 70 78 86 90 91 87 82 80 79 84
nan 34 37 39 42 nan nan nan nan nan nan nan nan nan nan nan nan nan nan nan nan nan nan nan nan nan nan nan nan nan nan nan 58 59 59 61 63 64 63 63 65 67 67 67 65 64 63 63 61 62 61 57 55 55 56 55 54 54 53 53 52 52 53 51 52 53 54 55 57 57 58 60 64 69 74 nan 68 70 81 87 95 99 93 83 83 83 81
28 33 35 38 40 nan 56 nan nan nan nan nan nan nan nan nan nan nan nan nan nan nan nan nan nan nan nan nan nan nan nan nan nan 48 53 58 61 61 63 61 64 66 66 66 65 63 62 61 60 59 56 53 52 52 51 52 51 51 52 53 54 54 53 54 53 54 54 53 54 58 59 61 65 66 64 64 67 66 66 67 78 87 83 71 71 80 86
29 31 32 33 36 41 49 60 nan nan nan nan nan nan nan nan nan nan nan nan nan nan nan nan nan nan nan nan nan nan nan nan nan nan nan nan nan 59 59 59 59 58 57 57 56 56 56 56 56 56 52 50 50 49 49 49 47 48 50 52 53 55 56 56 54 53 54 56 nan 58 53 nan 48 47 47 45 48 47 42 53 58 59 63 69 68 75 98
16 21 27 34 36 37 42 nan nan nan nan nan nan nan nan nan nan nan nan nan nan nan nan nan nan nan nan nan nan nan nan nan nan nan nan nan nan nan nan 55 54 54 53 53 53 54 52 52 54 52 48 46 45 45 45 45 46 47 47 48 48 47 nan nan 50 52 53 53 50 46 nan nan nan nan nan 28 22 nan nan 35 43 45 49 52 nan nan nan
11 11 18 28 35 nan nan nan nan nan nan nan nan nan nan nan nan nan nan nan nan 38 46 nan nan nan nan nan nan nan nan nan nan nan nan nan nan nan nan nan nan nan nan 52 53 53 52 53 51 49 48 45 42 41 42 45 45 46 45 43 44 43 43 nan 47 47 44 42 39 36 34 30 22 19 19 21 21 nan nan nan nan 41 47 nan nan nan nan
15 10 nan nan 25 29 nan nan nan nan nan nan nan nan nan nan nan nan 36 31 29 34 44 nan nan nan nan nan nan nan nan nan nan nan nan nan nan nan nan nan nan nan nan nan nan nan nan nan 48 49 49 47 44 42 41 42 44 45 44 41 40 38 40 40 40 40 37 33 32 33 31 27 20 13 11 9 nan nan nan nan nan nan nan nan nan nan nan
23 nan nan 11 nan nan nan nan nan nan nan nan 39 50 nan 62 56 48 40 35 30 29 nan nan nan nan nan nan nan nan nan nan nan nan nan nan nan nan nan nan nan nan nan nan nan nan nan nan nan 48 48 48 47 45 44 43 43 44 43 42 42 41 40 39 39 37 34 32 31 29 26 22 21 18 14 9 nan nan nan nan nan nan nan nan nan nan nan
18 nan 20 19 18 18 16 nan 14 nan 21 25 29 37 49 57 56 48 42 35 30 30 nan nan nan nan nan nan nan nan nan nan nan nan nan nan nan nan nan nan nan nan nan nan nan nan nan nan 47 51 nan nan 47 47 48 48 45 43 42 41 42 42 40 38 36 33 29 26 26 25 22 22 22 21 18 12 10 11 nan nan nan nan nan nan nan nan nan
nan 18 nan 19 nan 22 20 18 16 15 17 19 22 27 36 44 47 43 39 35 nan nan nan nan nan nan nan nan nan nan nan nan nan nan nan nan nan nan nan nan nan nan nan nan nan nan nan nan nan nan nan nan nan nan nan 53 nan 45 43 43 43 42 41 39 36 31 27 25 25 21 21 22 23 23 23 18 18 20 18 nan nan nan nan nan nan nan nan
nan 17 20 nan nan nan nan 21 nan 18 18 20 22 24 24 27 nan nan nan nan nan nan nan nan nan nan nan nan nan nan nan nan nan nan nan nan nan nan nan nan nan nan nan nan nan nan nan nan nan nan nan nan nan nan nan nan nan nan 43 42 42 42 42 41 37 33 29 28 26 25 23 22 24 26 27 26 26 26 26 nan nan nan nan nan nan nan nan
nan nan nan 17 23 28 28 nan nan 20 19 19 nan nan 21 nan nan nan nan nan nan nan nan nan nan nan nan nan nan nan nan nan nan nan nan nan nan nan nan nan nan nan nan nan nan nan nan nan nan nan nan nan nan nan nan nan nan nan nan nan nan 41 43 43 39 35 31 27 26 26 27 27 25 26 30 29 28 29 28 29 28 nan 24 26 26 26 25
nan nan 25 21 21 22 22 21 20 19 nan nan nan nan nan nan nan nan nan nan nan nan nan nan nan nan nan nan nan nan nan nan nan nan nan nan nan nan nan nan nan nan nan nan nan nan nan nan nan nan nan nan nan nan nan nan nan nan nan nan nan nan nan 43 41 38 32 29 29 29 26 25 27 26 27 29 30 31 30 29 31 nan nan 30 26 23 nan
nan nan nan 29 29 29 29 28 28 28 29 nan nan nan nan nan nan nan nan nan nan nan nan nan nan nan nan nan nan nan nan nan nan nan nan nan nan nan nan nan nan nan nan nan nan nan nan nan nan nan nan nan nan nan nan nan nan nan nan nan nan nan nan nan nan nan nan nan nan 33 31 28 29 30 27 28 31 32 33 33 31 33 34 33 30 nan nan
nan nan nan nan nan nan nan nan nan nan nan nan nan nan nan nan nan nan nan nan nan nan nan nan nan nan nan nan nan nan nan nan nan nan nan nan nan nan nan nan nan nan nan nan nan nan nan nan nan nan nan nan nan nan nan nan nan nan nan nan nan nan nan nan nan nan nan nan nan nan nan 35 33 31 28 26 26 26 28 32 33 32 32 32 32 nan 35
nan nan nan nan nan nan nan nan nan nan nan nan nan nan nan nan nan nan nan nan nan nan nan nan nan nan nan nan nan nan nan nan nan nan nan nan nan nan nan nan nan nan nan nan nan nan nan nan nan nan nan nan nan nan nan nan nan nan nan nan nan nan nan nan nan nan nan nan nan nan nan nan nan 31 28 25 25 25 26 29 nan nan nan nan nan nan nan
nan nan nan nan nan nan nan nan nan nan nan nan nan nan nan nan nan nan nan nan nan nan nan nan nan nan nan nan nan nan nan nan nan nan nan nan nan nan nan nan nan nan nan nan nan nan nan nan nan nan nan nan nan nan nan nan nan nan nan nan nan nan nan nan nan nan nan nan nan nan nan nan nan nan nan nan 28 nan nan nan nan nan nan nan nan nan nan
nan nan nan nan nan nan nan nan nan nan nan nan nan nan nan nan nan nan nan nan nan nan nan nan nan nan nan nan nan nan nan nan nan nan nan nan nan nan nan nan nan nan nan nan nan nan nan nan nan nan nan nan nan nan nan nan nan nan nan nan nan nan nan nan nan nan nan nan nan nan nan nan nan nan nan nan nan nan nan nan nan nan nan nan nan nan nan
nan nan nan nan nan nan nan nan nan nan nan nan nan nan nan nan nan nan nan nan nan nan nan nan nan nan nan nan nan nan nan nan nan nan nan nan nan nan nan nan nan nan nan nan nan nan nan nan nan nan nan nan nan nan nan nan nan nan nan nan nan nan nan nan nan nan nan nan nan nan nan nan nan nan nan nan nan nan nan nan nan nan nan 29 nan nan 39
nan nan nan nan nan nan nan nan nan nan nan nan nan nan nan nan nan nan nan nan nan nan nan nan nan nan nan nan nan nan nan nan nan nan nan nan nan nan nan nan nan nan nan nan nan nan nan nan nan nan nan nan nan nan nan nan nan nan nan nan nan nan nan nan nan nan nan nan nan nan nan nan nan nan nan nan nan nan nan nan nan nan 33 37 39 41 42
nan nan nan nan nan nan nan nan nan nan nan nan nan nan nan nan nan nan nan nan nan nan nan nan nan nan nan nan nan nan nan nan nan nan nan nan nan nan nan nan nan nan nan nan nan nan nan nan nan nan nan nan nan nan nan nan nan nan nan nan nan nan nan nan nan nan nan nan nan nan nan nan nan nan nan nan nan nan nan nan nan nan 36 nan nan nan 39
nan nan nan nan nan nan nan nan nan nan nan nan nan nan nan nan nan nan nan nan nan nan nan nan nan nan nan nan nan nan nan nan nan nan nan nan nan nan nan nan nan nan nan nan nan nan nan nan nan nan nan nan nan nan nan nan nan nan nan nan nan nan nan nan nan nan nan nan nan nan nan nan nan nan nan nan nan nan nan nan nan nan 42 43 44 45 45
nan nan nan nan nan nan nan nan nan nan nan nan nan nan nan nan nan nan nan nan nan nan nan nan nan nan nan nan nan nan nan nan nan nan nan nan nan nan nan nan nan nan nan nan nan nan nan nan nan nan nan nan nan nan nan nan nan nan nan nan nan nan nan nan nan nan nan nan nan nan nan nan nan nan nan nan nan nan nan nan nan nan nan nan nan nan nan
nan nan nan nan nan nan nan nan nan nan nan nan nan nan nan nan nan nan nan nan nan nan nan nan nan nan nan nan nan nan nan nan nan nan nan nan nan nan nan nan nan nan nan nan nan nan nan nan nan nan nan nan nan nan nan nan nan nan nan nan nan nan nan nan nan nan nan nan nan nan nan nan nan nan nan nan nan nan nan nan nan nan nan nan nan nan nan
nan nan nan nan nan nan nan nan nan nan nan nan nan nan nan nan nan nan nan nan nan nan nan nan nan nan nan nan nan nan nan nan nan nan nan nan nan nan nan nan nan nan nan nan nan nan nan nan nan nan nan nan nan nan nan nan nan nan nan nan nan nan nan nan nan nan nan nan nan nan nan nan nan nan nan nan nan nan nan nan nan nan nan nan nan nan nan
Wind_Direction
nan nan nan nan nan nan nan nan nan nan nan nan nan nan nan nan nan nan nan nan nan nan nan nan nan nan nan nan nan nan nan nan nan nan nan nan nan nan nan nan nan nan nan nan nan nan nan nan nan 310 298 289 280 280 283 286 291 297 290 289 297 302 303 318 338 335 325 322 321 317 315 317 321 321 318 313 307 302 298 292 285 285 282 276 273 270 265
nan nan nan nan nan nan nan nan nan nan nan nan nan nan nan nan nan nan nan nan nan nan nan nan nan nan nan nan nan nan nan nan nan nan nan nan nan nan nan nan nan nan nan nan nan nan nan nan nan 305 303 296 294 295 294 295 300 305 290 298 305 309 319 334 327 314 312 312 315 314 314 316 317 318 318 315 310 308 306 300 294 290 288 284 280 280 278
nan nan nan nan nan nan nan nan nan nan nan nan nan nan nan nan nan nan nan nan nan nan nan nan nan nan nan nan nan nan nan nan nan nan nan nan nan nan nan nan nan nan nan nan nan nan 264 276 291 300 304 301 293 290 284 286 294 294 298 304 312 322 338 334 315 309 307 309 307 313 314 311 310 313 314 312 313 312 308 305 303 296 293 295 295 286 284
nan nan nan nan nan nan nan nan nan nan nan nan nan nan nan nan nan nan nan nan nan nan nan nan nan nan nan nan nan nan nan nan nan nan nan nan nan nan nan nan nan nan nan nan nan nan 267 275 280 288 295 293 284 281 277 281 288 286 294 302 316 326 328 309 309 315 314 308 308 311 308 311 309 307 307 311 316 317 314 313 306 298 299 300 294 289 285
nan nan nan nan nan nan nan nan nan nan nan nan nan nan nan nan nan nan nan nan nan nan nan nan nan nan nan nan nan nan nan nan nan nan nan nan nan nan nan nan nan nan nan nan nan nan 270 275 278 298 305 296 297 296 287 285 270 273 287 297 304 308 298 295 307 312 308 309 313 309 309 307 302 301 305 311 316 317 319 315 308 308 309 302 294 288 288
nan nan nan nan nan nan nan nan nan nan nan nan nan nan nan nan nan nan nan nan nan nan nan nan nan nan nan nan nan nan nan nan nan nan nan nan nan nan nan nan nan nan nan nan nan nan 255 268 282 292 291 298 303 295 283 267 269 273 277 283 288 294 290 291 297 300 302 308 313 310 301 297 296 298 303 310 313 312 312 313 318 319 312 306 295 289 288
nan nan nan nan nan nan nan nan nan nan nan nan nan nan nan nan nan nan nan nan nan nan nan nan nan nan nan 243 241 233 231 232 233 nan nan nan nan nan nan nan nan nan nan nan nan nan 231 244 250 251 252 259 255 253 260 271 276 279 286 290 290 287 287 288 287 289 295 302 306 301 294 292 292 295 300 303 308 309 310 314 320 321 315 309 300 291 287
nan nan nan nan nan nan nan nan nan nan nan nan nan nan nan nan nan nan nan nan nan nan nan nan nan nan nan 241 240 237 234 233 231 230 231 229 228 225 225 nan nan nan nan nan nan nan 228 233 240 242 238 244 254 261 265 272 273 281 291 294 291 282 283 287 292 295 298 300 300 295 294 294 296 297 297 302 306 305 305 308 312 314 313 310 306 294 285
nan nan nan nan nan nan nan nan nan nan nan nan nan nan nan nan nan nan nan nan nan nan nan nan nan nan nan nan nan 240 237 233 230 228 228 228 228 228 227 227 223 222 221 nan nan 244 243 245 246 245 241 244 250 254 260 265 272 280 286 290 288 286 288 290 293 296 299 299 294 291 290 294 301 302 301 301 299 296 302 305 308 314 316 311 303 295 288
nan nan nan nan nan nan nan nan nan nan nan nan nan nan nan nan 232 235 nan nan nan nan nan nan nan nan nan nan nan 242 240 236 231 226 226 227 229 229 226 226 229 227 224 226 235 249 252 252 252 246 245 248 254 258 261 264 269 272 280 289 292 290 288 285 283 284 285 284 282 280 282 293 300 299 296 292 296 295 300 300 300 306 304 301 298 292 290
nan nan nan nan nan nan nan nan nan nan nan nan nan nan nan 231 226 228 232 nan nan nan nan nan nan nan nan nan nan nan 242 237 235 229 228 228 229 228 226 225 225 225 226 229 239 245 251 254 255 257 256 257 259 261 264 269 273 276 283 291 293 292 289 283 280 281 283 288 291 287 287 293 292 290 288 290 288 287 289 292 296 297 296 297 296 292 289
nan nan nan nan nan nan nan nan nan nan nan nan nan nan nan 227 nan nan 229 229 nan nan nan nan nan nan nan nan nan 244 243 241 239 235 232 232 231 229 228 227 227 229 230 235 236 238 243 248 253 259 262 264 266 266 266 269 276 282 286 291 294 292 287 283 282 284 287 292 295 296 297 295 291 285 273 273 281 285 286 283 283 286 290 293 296 291 284
nan nan nan nan nan nan nan nan nan nan nan nan nan nan nan nan nan nan 228 227 230 236 nan nan nan nan 239 242 242 242 nan nan nan 238 237 235 234 232 230 227 225 229 233 238 239 237 236 242 253 256 260 265 268 268 268 269 279 288 289 285 283 279 274 276 280 285 288 292 296 296 294 294 293 286 275 275 280 279 276 274 275 278 287 289 291 291 285
nan nan nan nan nan nan nan nan nan nan nan nan nan nan nan 220 nan 222 225 227 230 232 237 231 235 244 244 243 243 nan nan nan nan nan 237 236 236 235 234 231 228 227 230 235 238 236 235 237 246 254 259 262 264 266 269 276 283 282 275 271 270 269 272 276 278 282 287 289 292 291 291 292 295 296 282 270 273 278 275 275 277 279 281 283 285 284 281
nan nan nan nan nan nan nan nan nan nan nan nan nan nan 227 224 222 223 222 228 nan nan nan 233 232 234 236 nan 240 nan nan nan nan nan 236 234 233 233 232 231 230 229 229 231 234 235 236 236 238 244 250 257 261 265 271 278 276 271 269 269 272 274 275 277 280 285 288 291 290 287 290 294 300 301 288 273 270 272 275 277 279 279 280 281 280 280 279
nan nan nan nan nan nan nan nan nan nan nan nan nan 233 233 230 227 223 224 224 227 231 235 234 231 nan nan nan nan 237 nan nan nan nan nan nan nan 233 233 233 233 233 233 233 235 235 235 236 237 238 244 249 253 258 265 259 256 259 265 269 272 277 279 279 280 281 284 287 288 287 292 294 296 297 294 287 280 275 275 275 275 277 275 275 273 275 279
nan nan nan 229 nan nan 229 nan nan 236 nan nan 231 231 234 233 228 224 224 222 222 227 231 nan nan nan nan nan nan 232 231 233 235 235 235 nan nan 233 233 232 234 236 236 234 235 237 237 237 239 240 242 244 247 252 252 251 256 261 266 270 273 275 277 278 281 283 283 283 285 286 288 291 293 293 293 290 287 285 284 282 279 279 279 278 277 276 276
nan nan 217 229 229 nan nan nan nan 239 236 237 235 233 234 nan 230 225 222 220 nan nan nan nan nan nan nan nan 223 227 232 235 234 234 234 234 233 233 233 233 234 237 238 238 237 238 239 239 241 242 244 246 246 247 248 251 255 263 268 270 274 277 276 274 276 278 279 281 283 285 286 286 289 288 288 288 290 291 290 286 283 283 282 282 282 279 275
nan nan 226 227 nan nan 228 nan 236 239 235 238 237 238 237 nan nan nan nan nan nan nan nan nan nan nan nan nan 226 226 230 234 236 235 233 233 233 233 232 231 232 235 236 236 237 237 239 241 244 245 246 248 249 249 250 252 255 259 265 272 277 280 280 279 278 280 283 281 281 281 282 282 283 283 282 282 285 286 287 286 285 284 284 284 284 282 279
nan nan 219 226 224 220 222 nan nan nan nan 232 234 233 237 nan nan nan nan nan nan nan 223 228 230 231 234 nan 231 229 229 232 236 237 236 235 235 234 235 234 233 233 234 235 236 237 239 241 242 243 245 247 248 250 252 253 254 257 260 267 273 279 283 281 282 284 287 292 291 284 283 283 283 282 282 284 285 287 287 288 288 287 287 286 285 286 284
nan nan 214 226 223 nan nan nan nan nan nan nan 229 225 nan 227 nan nan nan nan nan nan 223 220 228 231 231 233 232 230 230 232 235 237 239 239 237 235 238 240 239 239 237 237 238 238 238 238 239 242 243 246 247 250 254 256 257 259 260 262 263 263 265 266 271 274 277 279 282 282 281 281 282 284 286 285 286 286 287 285 286 287 286 283 281 279 276
nan nan nan 225 nan nan nan nan nan nan nan 231 nan 227 219 nan nan 225 221 nan nan nan 226 220 220 230 232 230 231 231 233 234 235 236 239 240 239 241 245 247 246 246 245 242 240 239 239 240 241 243 245 247 248 249 250 253 255 255 256 259 261 262 262 262 260 260 262 265 270 274 277 277 279 278 278 279 279 282 282 286 291 293 289 286 284 275 271
nan nan nan 204 nan nan nan nan nan nan nan nan nan 229 226 nan 223 nan nan nan nan nan nan nan 218 223 229 229 229 231 232 232 233 234 236 239 242 245 247 247 246 248 249 247 244 242 244 245 246 246 247 248 250 252 254 254 255 256 257 258 259 260 261 263 264 266 264 262 261 263 266 270 273 273 270 260 258 258 261 273 281 284 286 283 280 281 279
nan nan 185 195 nan nan nan nan nan nan nan nan nan nan nan nan nan nan nan nan nan nan nan 214 213 215 221 226 229 230 227 225 228 230 233 238 243 246 247 248 248 249 250 249 247 247 250 252 251 250 249 249 249 251 255 256 258 260 262 263 264 264 265 265 264 263 263 263 264 264 263 262 264 267 268 268 264 254 252 265 274 274 277 277 281 282 279
nan nan nan nan 199 nan nan nan nan nan nan nan nan nan nan nan nan nan nan nan nan nan nan nan 205 209 215 221 227 226 220 218 223 228 231 236 240 242 244 245 246 247 250 251 251 253 255 255 255 255 254 253 252 253 256 258 261 263 264 264 265 267 269 268 267 265 263 260 257 258 261 264 265 266 267 266 266 261 254 253 262 271 273 273 275 276 277
nan 183 nan nan 201 nan nan nan nan nan nan nan nan nan nan nan nan nan nan nan nan nan nan nan nan nan nan 220 222 217 213 215 220 226 229 232 235 238 239 242 245 249 251 252 253 255 258 259 260 261 259 257 256 257 259 259 262 264 265 267 266 267 267 266 264 264 263 262 262 262 262 262 263 266 268 268 268 268 266 262 257 252 252 265 272 273 274
nan nan nan 195 213 nan nan nan nan nan nan nan nan nan nan nan nan nan nan nan nan nan nan nan nan nan nan nan 214 210 210 211 217 222 226 230 233 237 240 244 247 250 253 255 255 255 255 258 260 261 261 260 259 260 262 262 262 264 266 267 267 266 262 264 265 263 262 263 264 264 265 268 269 269 271 274 277 278 275 272 267 264 262 259 264 272 270
184 nan nan nan nan nan nan nan nan nan nan nan nan nan nan nan nan nan nan nan nan nan nan nan nan nan nan nan nan nan nan 214 218 222 226 229 232 236 241 245 248 251 254 256 255 254 256 259 260 259 258 257 259 261 263 263 263 264 266 267 267 267 267 265 264 264 265 265 266 266 265 267 269 270 272 277 280 279 276 271 265 262 257 256 254 257 264
nan 188 193 194 206 nan nan nan nan nan nan nan nan nan nan nan nan nan nan nan nan nan nan nan nan nan nan nan nan nan nan nan 219 223 226 229 232 236 240 245 249 251 253 254 253 252 254 257 257 255 255 255 257 260 262 262 262 263 264 266 267 267 266 265 265 265 265 266 267 266 266 267 270 271 272 nan 267 274 275 265 258 256 256 253 251 250 250
186 194 199 204 212 nan 211 nan nan nan nan nan nan nan nan nan nan nan nan nan nan nan nan nan nan nan nan nan nan nan nan nan nan 226 230 233 234 237 241 246 251 251 252 252 251 252 253 255 254 254 255 256 258 259 260 261 260 261 263 265 266 267 268 268 267 267 267 266 266 265 266 267 268 267 267 269 271 271 275 271 263 255 245 245 256 259 253
184 202 210 212 209 210 215 213 nan nan nan nan nan nan nan nan nan nan nan nan nan nan nan nan nan nan nan nan nan nan nan nan nan nan nan nan nan 240 242 243 247 249 251 253 254 256 255 256 256 256 257 257 257 257 257 258 258 259 260 262 263 265 267 269 270 271 271 270 nan 269 267 nan 269 269 269 271 270 263 268 281 275 258 247 239 232 239 243
171 203 212 213 212 216 215 nan nan nan nan nan nan nan nan nan nan nan nan nan nan nan nan nan nan nan nan nan nan nan nan nan nan nan nan nan nan nan nan 244 247 251 253 254 256 257 258 258 255 254 254 255 255 254 255 256 259 260 260 262 265 267 nan nan 273 274 274 274 274 272 nan nan nan nan nan 270 257 nan nan 239 235 236 241 239 nan nan nan
187 208 214 215 220 nan nan nan nan nan nan nan nan nan nan nan nan nan nan nan nan 227 228 nan nan nan nan nan nan nan nan nan nan nan nan nan nan nan nan nan nan nan nan 258 257 257 258 256 255 254 253 251 251 253 256 259 260 261 261 264 267 268 269 nan 276 278 276 277 279 281 278 273 278 295 293 277 263 nan nan nan nan 224 226 nan nan nan nan
183 205 nan nan 212 223 nan nan nan nan nan nan nan nan nan nan nan nan 251 256 250 235 230 nan nan nan nan nan nan nan nan nan nan nan nan nan nan nan nan nan nan nan nan nan nan nan nan nan 252 252 252 252 251 252 252 254 258 261 261 263 264 266 270 271 271 275 279 279 283 289 293 291 288 296 300 274 nan nan nan nan nan nan nan nan nan nan nan
175 nan nan 212 nan nan nan nan nan nan nan nan 241 238 nan 236 240 244 250 256 256 244 nan nan nan nan nan nan nan nan nan nan nan nan nan nan nan nan nan nan nan nan nan nan nan nan nan nan nan 248 251 252 251 251 251 250 253 258 259 262 264 264 264 266 268 270 275 279 281 283 285 285 289 289 284 279 nan nan nan nan nan nan nan nan nan nan nan
175 nan 198 204 204 213 223 nan 227 nan 241 242 245 244 240 239 241 245 249 254 257 252 nan nan nan nan nan nan nan nan nan nan nan nan nan nan nan nan nan nan nan nan nan nan nan nan nan nan 240 238 nan nan 248 249 253 255 255 255 256 259 261 260 260 261 261 264 263 263 266 272 274 271 277 282 278 268 272 270 nan nan nan nan nan nan nan nan nan
nan 179 nan 196 nan 206 211 214 217 223 225 231 238 243 241 240 241 242 246 250 nan nan nan nan nan nan nan nan nan nan nan nan nan nan nan nan nan nan nan nan nan nan nan nan nan nan nan nan nan nan nan nan nan nan nan 250 nan 258 258 256 257 257 256 257 255 253 255 258 259 258 264 266 267 273 278 277 284 290 285 nan nan nan nan nan nan nan nan
nan 180 187 nan nan nan nan 199 nan 216 223 222 224 227 233 236 nan nan nan nan nan nan nan nan nan nan nan nan nan nan nan nan nan nan nan nan nan nan nan nan nan nan nan nan nan nan nan nan nan nan nan nan nan nan nan nan nan nan 255 255 255 254 253 253 251 250 254 261 259 258 257 263 268 274 274 274 277 281 286 nan nan nan nan nan nan nan nan
nan nan nan 188 199 200 202 nan nan 203 215 228 nan nan 226 nan nan nan nan nan nan nan nan nan nan nan nan nan nan nan nan nan nan nan nan nan nan nan nan nan nan nan nan nan nan nan nan nan nan nan nan nan nan nan nan nan nan nan nan nan nan 251 251 251 251 251 252 255 259 262 265 266 263 269 277 277 277 279 276 270 262 nan 262 267 264 261 258
nan nan 185 192 201 200 200 199 196 196 nan nan nan nan nan nan nan nan nan nan nan nan nan nan nan nan nan nan nan nan nan nan nan nan nan nan nan nan nan nan nan nan nan nan nan nan nan nan nan nan nan nan nan nan nan nan nan nan nan nan nan nan nan 248 247 248 249 256 260 259 257 259 263 266 272 272 271 272 271 264 255 nan nan 251 253 256 nan
nan nan nan 171 175 180 179 180 183 184 191 nan nan nan nan nan nan nan nan nan nan nan nan nan nan nan nan nan nan nan nan nan nan nan nan nan nan nan nan nan nan nan nan nan nan nan nan nan nan nan nan nan nan nan nan nan nan nan nan nan nan nan nan nan nan nan nan nan nan 263 261 260 261 260 260 265 269 270 269 264 258 251 247 246 242 nan nan
nan nan nan nan nan nan nan nan nan nan nan nan nan nan nan nan nan nan nan nan nan nan nan nan nan nan nan nan nan nan nan nan nan nan nan nan nan nan nan nan nan nan nan nan nan nan nan nan nan nan nan nan nan nan nan nan nan nan nan nan nan nan nan nan nan nan nan nan nan nan nan 263 264 263 256 251 253 257 258 259 256 251 250 246 241 nan 238
nan nan nan nan nan nan nan nan nan nan nan nan nan nan nan nan nan nan nan nan nan nan nan nan nan nan nan nan nan nan nan nan nan nan nan nan nan nan nan nan nan nan nan nan nan nan nan nan nan nan nan nan nan nan nan nan nan nan nan nan nan nan nan nan nan nan nan nan nan nan nan nan nan 259 253 243 241 242 249 254 nan nan nan nan nan nan nan
nan nan nan nan nan nan nan nan nan nan nan nan nan nan nan nan nan nan nan nan nan nan nan nan nan nan nan nan nan nan nan nan nan nan nan nan nan nan nan nan nan nan nan nan nan nan nan nan nan nan nan nan nan nan nan nan nan nan nan nan nan nan nan nan nan nan nan nan nan nan nan nan nan nan nan nan 233 nan nan nan nan nan nan nan nan nan nan
nan nan nan nan nan nan nan nan nan nan nan nan nan nan nan nan nan nan nan nan nan nan nan nan nan nan nan nan nan nan nan nan nan nan nan nan nan nan nan nan nan nan nan nan nan nan nan nan nan nan nan nan nan nan nan nan nan nan nan nan nan nan nan nan nan nan nan nan nan nan nan nan nan nan nan nan nan nan nan nan nan nan nan nan nan nan nan
nan nan nan nan nan nan nan nan nan nan nan nan nan nan nan nan nan nan nan nan nan nan nan nan nan nan nan nan nan nan nan nan nan nan nan nan nan nan nan nan nan nan nan nan nan nan nan nan nan nan nan nan nan nan nan nan nan nan nan nan nan nan nan nan nan nan nan nan nan nan nan nan nan nan nan nan nan nan nan nan nan nan nan 239 nan nan 236
nan nan nan nan nan nan nan nan nan nan nan nan nan nan nan nan nan nan nan nan nan nan nan nan nan nan nan nan nan nan nan nan nan nan nan nan nan nan nan nan nan nan nan nan nan nan nan nan nan nan nan nan nan nan nan nan nan nan nan nan nan nan nan nan nan nan nan nan nan nan nan nan nan nan nan nan nan nan nan nan nan nan 229 227 224 224 228
nan nan nan nan nan nan nan nan nan nan nan nan nan nan nan nan nan nan nan nan nan nan nan nan nan nan nan nan nan nan nan nan nan nan nan nan nan nan nan nan nan nan nan nan nan nan nan nan nan nan nan nan nan nan nan nan nan nan nan nan nan nan nan nan nan nan nan nan nan nan nan nan nan nan nan nan nan nan nan nan nan nan 224 nan nan nan 232
nan nan nan nan nan nan nan nan nan nan nan nan nan nan nan nan nan nan nan nan nan nan nan nan nan nan nan nan nan nan nan nan nan nan nan nan nan nan nan nan nan nan nan nan nan nan nan nan nan nan nan nan nan nan nan nan nan nan nan nan nan nan nan nan nan nan nan nan nan nan nan nan nan nan nan nan nan nan nan nan nan nan 243 242 241 243 248
nan nan nan nan nan nan nan nan nan nan nan nan nan nan nan nan nan nan nan nan nan nan nan nan nan nan nan nan nan nan nan nan nan nan nan nan nan nan nan nan nan nan nan nan nan nan nan nan nan nan nan nan nan nan nan nan nan nan nan nan nan nan nan nan nan nan nan nan nan nan nan nan nan nan nan nan nan nan nan nan nan nan nan nan nan nan nan
nan nan nan nan nan nan nan nan nan nan nan nan nan nan nan nan nan nan nan nan nan nan nan nan nan nan nan nan nan nan nan nan nan nan nan nan nan nan nan nan nan nan nan nan nan nan nan nan nan nan nan nan nan nan nan nan nan nan nan nan nan nan nan nan nan nan nan nan nan nan nan nan nan nan nan nan nan nan nan nan nan nan nan nan nan nan nan
nan nan nan nan nan nan nan nan nan nan nan nan nan nan nan nan nan nan nan nan nan nan nan nan nan nan nan nan nan nan nan nan nan nan nan nan nan nan nan nan nan nan nan nan nan nan nan nan nan nan nan nan nan nan nan nan nan nan nan nan nan nan nan nan nan nan nan nan nan nan nan nan nan nan nan nan nan nan nan nan nan nan nan nan nan nan nan